Location: Izdebno
(52.6670°N, 16.2170°E)
Time: 12:57:51
(UTC+02:00)

A-11 Canister half - Pass Details

Date: 11 February 2023
Orbit: 1526 x 1682 km, 47.3° (Epoch: 26 March)

Event Time Altitude Azimuth Distance (km) Brightness Sun altitude
Exits shadow 07:06:44 - 268° (W) 4,697 10.9 -2.7°
Rises 07:06:47 0° 268° (W) 4,678 10.9 -2.7°
Reaches altitude 10° 07:09:51 10° 266° (W) 3,695 10.5 -2.3°
Maximum altitude 07:18:57 62° 188° (S) 1,696 9.4 -1.0°
Drops below altitude 10° 07:28:13 10° 111° (ESE) 3,756 13.4 0.3°
Sets 07:31:21 0° 108° (ESE) 4,758 14.4 0.7°
